Погода в Амьене

Франция     49°53′19″N   2°17′23″E
темп.,
°C
ветер,
м/с
пор.,
м/с
влажн.,
%
обл.,
%
осадки,
мм/ч
давл.,
гПа
погр.,
м
4 августа, ср
ср423:00+13сз2288100 0.4 101424
02:00+12сз119015 0.4 101411
05:00+11зсз119279 0.0 101310
08:00+13сз118663 0.0 101356
11:00+18юв216664 0.0 1013733
14:00+21ююв115597 0.1 10131412
17:00+21ю2256100 0.2 10121364
20:00+17зсз248196 1.2 1012192
5 августа, чт
чт523:00+15сз228662 0.2 101228
02:00+14зсз238792 0.2 101265
05:00+13з239076 0.0 101166
08:00+14з2287100 0.0 101187
11:00+18ююз33705 0.0 1010737
14:00+21ююз4657100 0.1 10081636
17:00+22ю485593 0.1 10061817
20:00+19ююз51066100 0.1 1004573
6 августа, пт
пт623:00+17ююз61387100 0.5 1003627
02:00+15юз5119557 1.2 1003430
05:00+15юз61191100 0.5 1003619
08:00+15юз61289100 0.6 1004829
11:00+17юз8128344 0.1 10051058
14:00+20зюз91167100 0.5 10051470
17:00+19юз7106941 0.8 10061285
20:00+18зюз387376 1.1 1006453
7 августа, сб
сб723:00+14юз228510 0.1 100627
02:00+13ю22891 0.1 100625
05:00+12ююз36910 0.0 1005105
08:00+13ююз39890 0.0 1004299
11:00+18ююз796728 0.0 10041104
14:00+20ююз81165100 1.5 10031500
17:00+21юз8116378 1.1 10031831
20:00+17зюз5107665 1.9 1004456
8 августа, вс
вс823:00+14юз411918 0.4 1006254
02:00+13юз6139152 0.4 1008512
05:00+13юз61393100 0.0 1008579
08:00+14зюз7118680 0.1 1010852
11:00+17зюз7971100 0.1 10121231
14:00+20зюз8105742 1.0 10131806
17:00+20зюз61054100 0.6 10142012
20:00+18з2474100 1.0 1015138